Location: Hilton Head Island
(32.2163°N, 80.7526°W)
Time: 12:20:46
(UTC-05:00)

Tiros 1 despin weight - All Passes

Search period start: 16 February 2026 00:00
Search period end: 26 February 2026 00:00
Orbit: 557 x 594 km, 48.2° (Epoch: 15 February)

Date Brightness Start Highest point End Pass type
(mag) Time Alt. Az. Time Alt. Az. Time Alt. Az.
16 Feb - 13:29:44 10° SSE 13:31:38 13° SE 13:33:32 10° ESE daylight
16 Feb - 15:07:33 10° SW 15:11:46 76° NW 15:15:57 10° NE daylight
16 Feb - 16:50:10 10° WNW 16:52:52 16° NNW 16:55:34 10° NNE daylight
16 Feb - 20:14:42 10° NNW 20:17:01 14° NNE 20:19:19 10° NE visible
16 Feb - 21:54:07 10° NW 21:58:16 56° NE 22:02:27 10° ESE night (unlit)
16 Feb - 23:35:37 10° W 23:38:32 18° SW 23:41:29 10° S night (unlit)
17 Feb - 13:30:40 10° S 13:33:57 22° SE 13:37:14 10° E daylight
17 Feb - 15:10:15 10° WSW 15:14:18 46° NW 15:18:21 10° NE daylight
17 Feb - 16:53:45 10° NW 16:55:41 13° NNW 16:57:37 10° N daylight
17 Feb - 20:16:49 10° NNW 20:19:48 18° NNE 20:22:47 10° ENE visible
17 Feb - 21:56:34 10° NW 22:00:48 88° SW 22:05:03 10° SE night (unlit)
17 Feb - 23:40:32 10° WSW 23:40:50 10° SW 23:41:09 10° SW night (unlit)
18 Feb - 13:32:23 10° SSW 13:36:19 38° SE 13:40:14 10° ENE daylight
18 Feb - 15:13:10 10° W 15:16:55 30° NNW 15:20:39 10° NNE daylight
18 Feb - 16:57:42 10° NNW 16:58:33 10° NNW 16:59:23 10° N daylight
18 Feb - 20:18:59 10° NNW 20:22:30 25° NNE 20:26:02 10° E visible
18 Feb - 21:59:09 10° WNW 22:03:14 51° SW 22:07:21 10° SSE night (unlit)
19 Feb - 13:34:31 10° SW 13:38:43 67° SE 13:42:54 10° NE daylight
19 Feb - 15:16:19 10° WNW 15:19:35 21° NNW 15:22:51 10° NNE daylight
19 Feb - 18:42:09 10° N 18:43:38 12° NNE 18:45:06 10° NE visible
19 Feb - 20:21:14 10° NW 20:25:09 37° NNE 20:29:04 10° ESE visible
19 Feb - 22:01:57 10° WNW 22:05:37 29° SW 22:09:18 10° SSE night (unlit)
20 Feb - 11:58:54 10° SSE 12:01:02 14° SE 12:03:10 10° E daylight
20 Feb - 13:36:57 10° WSW 13:41:11 72° NW 13:45:24 10° NE daylight
20 Feb - 15:19:39 10° WNW 15:22:19 16° NNW 15:24:58 10° NNE daylight
20 Feb - 18:44:06 10° NNW 18:46:28 14° NNE 18:48:48 10° NE visible
20 Feb - 20:23:33 10° NW 20:27:42 58° NE 20:31:52 10° ESE visible
20 Feb - 22:05:10 10° W 22:07:56 17° SW 22:10:43 10° S night (unlit)
21 Feb - 11:59:56 10° S 12:03:19 23° SE 12:06:43 10° ENE daylight
21 Feb - 13:39:38 10° WSW 13:43:42 44° NW 13:47:45 10° NE daylight
21 Feb - 15:23:13 10° NW 15:25:07 13° NNW 15:26:59 10° N daylight
21 Feb - 18:46:11 10° NNW 18:49:12 19° NNE 18:52:14 10° ENE visible
21 Feb - 20:25:57 10° NW 20:30:10 84° SW 20:34:24 10° SE visible
22 Feb - 12:01:40 10° SSW 12:05:40 40° SE 12:09:38 10° ENE daylight
22 Feb - 13:42:33 10° W 13:46:17 29° NNW 13:50:00 10° NNE daylight
22 Feb - 15:27:11 10° NNW 15:27:56 10° NNW 15:28:41 10° N daylight
22 Feb - 18:48:20 10° NNW 18:51:53 26° NNE 18:55:25 10° E visible
22 Feb - 20:28:32 10° WNW 20:32:35 48° SW 20:36:38 10° SSE visible
23 Feb - 12:03:48 10° SW 12:08:03 71° SE 12:12:15 10° NE daylight
23 Feb - 13:45:40 10° WNW 13:48:55 21° NNW 13:52:10 10° NNE daylight
23 Feb - 17:11:26 10° N 17:12:59 12° NNE 17:14:32 10° NE daylight
23 Feb - 18:50:33 10° NW 18:54:29 38° NNE 18:58:24 10° ESE visible
23 Feb - 20:31:20 10° WNW 20:34:55 28° SW 20:38:31 10° SSE visible
24 Feb - 10:27:57 10° SSE 10:30:19 14° SE 10:32:39 10° E daylight
24 Feb - 12:06:14 10° WSW 12:10:29 69° NW 12:14:41 10° NE daylight
24 Feb - 13:49:00 10° WNW 13:51:37 16° NNW 13:54:15 10° NNE daylight
24 Feb - 17:13:22 10° NNW 17:15:47 15° NNE 17:18:10 10° NE daylight
24 Feb - 18:52:50 10° NW 18:56:59 61° NE 19:01:09 10° ESE visible
24 Feb - 20:34:34 10° W 20:37:12 16° SW 20:39:49 10° SSW visible
25 Feb - 10:29:03 10° S 10:32:34 25° SE 10:36:03 10° ENE daylight
25 Feb - 12:08:54 10° WSW 12:12:58 43° NW 12:17:01 10° NE daylight
25 Feb - 13:52:33 10° NW 13:54:23 12° NNW 13:56:14 10° N daylight
25 Feb - 17:15:25 10° NNW 17:18:29 19° NNE 17:21:33 10° ENE daylight
25 Feb - 18:55:14 10° NW 18:59:26 80° SW 19:03:37 10° SE visible
